Location: Alafon
(8.4500°N, 4.2333°E)
Time: 20:35:49
(UTC+00:00)

Vanguard 2 - Pass Details

Date: 08 August 2021
Orbit: 553 x 2937 km, 32.9° (Epoch: 27 September)

Event Time Altitude Azimuth Distance (km) Brightness Sun altitude
Rises 19:40:04 0° 214° (SW) 6,508 12.4 -23.8°
Reaches altitude 10° 19:46:06 10° 202° (SSW) 5,178 11.7 -25.2°
Enters shadow 19:55:41 24° 161° (SSE) 3,467 10.4 -27.4°
Maximum altitude 19:56:33 24° 155° (SSE) 3,387 - -27.6°
Drops below altitude 10° 20:04:04 10° 106° (ESE) 3,655 - -29.3°
Sets 20:07:21 0° 92° (E) 4,282 - -30.1°
